CAPE
0 0 0 0 0 0 0 0 0 0 0 0 0 0 0 5 4 12 11 10 0 4 0 0 0 0 0 0 0 0 0 885 1375 1670 1295 1106 872 612 268 78 72 254 49 1
0 0 0 0 0 0 0 0 0 0 0 0 0 23 61 32 16 0 3 0 0 0 0 0 0 0 0 0 0 0 492 1209 1517 1753 1506 1298 1060 818 392 191 42 204 31 2
0 0 0 0 0 0 0 0 0 0 0 23 46 30 60 33 21 1 0 0 0 0 0 0 0 0 0 0 0 0 1025 1073 1673 1758 1610 1340 1330 912 489 219 72 165 18 21
0 0 0 0 0 0 0 0 0 0 0 37 94 63 110 90 61 33 8 22 17 20 22 34 0 0 0 0 0 0 720 1284 1682 1819 1607 1280 1171 885 578 378 340 241 67 18
0 0 0 0 0 0 0 0 0 0 8 87 211 165 142 55 63 6 12 3 15 20 30 21 47 2 0 0 0 0 317 1298 1678 1631 1661 1664 1175 1023 805 442 574 341 194 111
0 0 0 0 0 0 0 1 0 0 27 213 118 21 10 5 0 3 10 36 54 37 22 25 24 26 9 0 0 0 360 1274 1764 1621 1623 1591 1143 1214 661 576 724 479 239 94
0 1 0 0 0 0 14 37 3 15 56 20 1 1 0 0 0 4 12 8 18 50 41 10 141 25 67 0 0 0 547 992 1606 1537 1538 1471 1271 1169 979 815 801 577 348 216
0 29 0 0 0 0 15 41 0 0 5 0 0 90 198 0 2 1 1 0 23 111 74 38 13 0 36 3 0 0 306 992 1359 1463 1478 1505 1449 925 854 819 820 609 540 514
0 0 0 0 0 0 29 28 18 1 2 9 36 1 154 37 2 0 0 1 8 0 185 427 20 20 54 19 0 5 285 652 1159 1474 1440 1373 1310 1056 819 983 1126 741 614 864
1 0 0 0 1 7 28 10 11 29 0 1 5 7 42 14 9 9 2 4 12 35 159 0 128 7 64 18 9 33 818 811 1312 1367 1339 1328 1230 987 1090 1283 975 439 797 794
0 4 0 3 34 40 22 36 43 29 3 4 0 0 1 9 5 0 0 4 11 65 158 14 143 2 30 3 0 1447 1392 986 1310 1184 1316 1178 1117 1005 1001 878 736 1035 624 57
6 0 7 3 26 0 21 27 23 21 9 14 19 0 24 0 0 8 7 3 4 47 506 611 18 0 0 0 304 1045 1424 1252 1476 1172 1215 1094 1009 905 798 775 771 28 5 0
0 10 8 5 43 12 16 23 10 21 55 26 0 0 0 1 0 11 1 2 3 6 508 1039 18 0 0 29 833 1148 1601 1507 1594 970 1124 934 493 201 71 6 3 0 0 0
0 4 18 6 17 5 3 18 9 46 17 11 19 8 14 10 1 7 0 3 4 4 117 526 1103 371 134 780 1094 1146 1760 1762 1437 732 664 189 80 3 3 3 3 1 1 2
10 13 10 7 2 30 11 13 22 19 40 1 0 16 0 11 0 7 1 2 4 4 15 122 468 784 464 762 1668 1609 1696 1437 784 429 31 50 4 3 4 4 6 5 2 3
11 6 6 13 2 21 15 22 14 14 25 1 1 15 8 28 11 0 0 2 5 3 5 19 225 450 0 139 1229 1310 1230 866 309 27 5 5 5 6 7 6 5 4 3 3
4 11 15 4 17 1 23 32 6 6 11 18 0 11 16 13 2 3 0 4 4 4 4 4 50 202 442 964 358 219 61 37 5 6 5 5 5 6 6 6 5 4 3 0
9 11 11 6 8 9 25 21 17 15 24 10 0 8 7 9 0 3 1 3 4 4 3 2 2 4 18 117 137 11 0 3 5 6 7 7 7 6 4 4 5 5 4 4
3 14 10 7 7 0 2 16 20 15 25 0 2 1 6 18 0 4 0 3 4 2 2 3 1 4 2 2 4 0 0 3 7 9 8 7 4 4 4 5 5 5 4 1
6 2 8 9 0 2 33 20 0 0 0 2 5 0 0 13 2 0 0 4 3 2 6 3 2 0 2 3 2 0 3 6 9 6 8 5 5 4 3 4 3 2 0 0
11 17 15 12 10 19 25 4 0 3 1 6 19 6 1 8 35 1 0 2 5 5 2 1 2 1 1 2 2 3 2 2 3 3 2 3 3 4 2 2 1 1 1 0
3 4 12 20 11 5 8 0 4 1 7 32 33 5 11 7 18 4 0 0 4 2 5 2 2 3 2 1 0 4 4 3 3 4 5 4 2 2 1 1 1 0 0 0
1 6 5 6 1 0 0 7 4 0 0 0 26 5 6 3 12 7 2 1 0 4 5 7 4 2 4 4 1 2 5 3 3 3 3 3 2 2 1 2 1 0 0 0
0 7 6 2 0 8 2 5 5 10 34 14 17 20 17 9 3 7 2 2 1 2 5 4 5 2 5 4 4 5 3 2 2 3 3 2 2 2 0 0 0 0 0 0
2 0 0 0 0 1 11 3 2 7 26 29 18 31 20 24 6 4 1 3 3 2 4 5 3 3 4 5 4 2 2 2 2 2 1 1 0 0 0 0 0 0 0 0
0 0 0 0 1 4 12 3 1 1 13 19 13 13 27 26 15 4 1 3 3 2 4 4 2 2 3 3 3 2 1 1 2 1 0 0 0 0 0 0 0 0 0 0
CIN
0 0 0 0 0 0 0 0 0 0 0 0 0 0 0 -194 -159 -170 -159 -137 -59 -3 0 0 0 0 0 0 0 0 0 -2 -6 -4 -4 -4 -1 -54 -69 -145 -147 -128 -202 -77
0 0 0 0 0 0 0 0 0 0 0 0 0 -132 -74 -109 -105 -31 -197 0 0 0 0 0 0 0 0 0 0 0 -3 -2 -5 -2 -3 -6 -3 -22 -43 -112 -174 -160 -221 -128
0 0 0 0 0 0 0 0 0 0 0 -150 -57 -86 -90 -86 -75 -30 0 0 0 0 -1 0 0 0 0 0 0 0 -1 -4 -4 -3 -2 -10 -2 -4 -6 -48 -161 -173 -251 -298
0 0 0 0 0 0 0 0 0 0 0 -84 -34 -95 -22 -26 -50 -77 -6 -5 -5 -3 -4 -6 0 0 0 0 0 0 -1 -12 -5 -4 -1 -8 -7 -13 -18 -40 -99 -125 -215 -265
0 0 0 0 0 0 0 0 0 0 -71 -33 -20 -5 -21 -65 -80 -125 -90 -16 -4 -5 -99 -6 -40 -6 0 0 0 0 -3 -8 -4 -4 -6 -4 -8 -2 -9 -49 -22 -79 -129 -197
0 0 0 0 0 0 0 -1 0 0 -19 -12 -15 -47 -3 -84 -1 -1 -4 -4 -76 -4 -5 -6 -4 -6 -62 0 0 0 -1 -4 -5 -3 -7 -7 -12 -2 -12 -25 -22 -44 -130 -186
0 -2 0 0 0 0 -3 -4 -2 -14 -7 -9 -4 -34 0 0 0 -3 -2 -2 -59 -22 -9 -9 -5 -7 -3 0 0 0 0 -3 -2 -2 -3 -8 -10 -9 -4 -26 -39 -43 -67 -100
0 -4 0 0 0 0 -3 -2 -2 0 -1 0 0 -7 -4 0 -2 -2 -1 -1 -24 -4 -42 -52 -9 0 -5 -4 0 0 -2 -2 -3 -2 -3 -6 -7 -7 -9 -12 -9 -19 -11 -18
0 0 0 0 0 0 -2 -3 -2 -2 -4 0 -37 -7 -7 -6 -4 -1 0 -1 -1 -1 -38 -11 -21 -7 -3 -6 0 -2 -3 -2 -1 0 -5 -5 -5 -4 -7 -2 -3 -2 -3 -5
-2 0 0 -1 -1 -6 -7 -3 -2 -2 0 -2 -5 -4 -2 -2 -1 -2 -1 -1 -1 -96 -42 0 -70 -16 -6 -5 -3 -32 -2 -2 -1 -2 -5 -5 -4 -12 -3 -2 -4 -4 -4 -23
0 -1 0 -3 -4 -9 -30 -9 -3 -2 -4 -4 -2 -2 -15 -2 -1 0 0 0 0 -87 -34 -2 -20 -2 -4 -5 -2 -2 -2 -1 -4 -7 -1 -2 -3 -3 -2 -3 -2 -5 -38 -254
-3 0 -2 -4 -9 0 -2 -4 -1 -2 -4 -2 0 0 -36 0 0 0 0 0 0 -83 -20 -16 -9 0 0 0 -4 -3 0 -1 -1 -7 -1 -2 -7 -6 -14 -12 -3 -213 -135 0
0 -1 -2 -4 -6 -10 -5 -2 -4 -4 -2 0 -1 0 0 -8 0 0 0 0 0 0 -93 -30 -9 -1 -26 -91 -2 -3 -3 -2 -1 -27 -1 -4 -15 -107 -191 -62 0 0 0 0
0 -2 -2 0 -3 -3 -5 -2 -9 -2 -3 0 -1 -1 -3 -25 -2 -1 0 0 0 0 -205 -153 -23 -10 -39 -14 -7 -4 -1 -1 -3 -11 -4 -90 -175 -117 -89 0 0 0 0 0
-14 -3 -3 -3 -6 -3 -3 -4 -6 -8 -2 -2 0 -2 -2 -1 0 -1 0 0 0 0 -333 -263 -151 -15 -48 -4 -19 -18 0 -2 -13 -64 -62 -172 0 0 0 0 0 0 0 0
-4 -2 -4 -2 -20 -6 -5 -7 -12 -12 -1 -5 -15 -2 -6 -3 -11 0 0 0 0 0 0 -303 -141 -9 0 -43 -14 -2 -14 -6 -124 -265 0 0 0 0 0 0 0 0 0 0
-2 -2 -7 -2 -3 -4 -6 -4 -12 -13 -4 -1 0 -1 -4 -2 -1 -1 0 0 0 0 0 0 -157 -76 -28 -1 -127 -198 -212 -252 0 0 0 0 0 0 0 0 0 0 0 0
-1 -1 -3 -3 -4 -3 -6 -8 -4 -5 -4 -5 -15 -2 -3 -3 -3 -4 0 0 0 0 0 0 0 0 -251 -163 -119 -243 0 0 0 0 0 0 0 0 0 0 0 0 0 0
-12 -1 -3 -2 -2 -1 -14 -7 -3 -2 -3 0 -4 -2 -2 -1 -1 -2 0 0 0 0 0 0 0 0 0 0 0 0 0 0 0 0 0 0 0 0 0 0 0 0 0 0
-3 -8 -3 -5 -4 -1 -4 -5 0 0 0 -3 -3 -1 0 -1 -1 0 0 0 0 0 0 0 0 0 0 0 0 0 0 0 0 0 0 0 0 0 0 0 0 0 0 0
-2 -3 -4 -4 -6 -5 -12 -4 0 -3 -1 -2 -3 -8 -2 -3 -1 0 0 0 0 0 0 0 0 0 0 0 0 0 0 0 0 0 0 0 0 0 0 0 0 0 0 0
-2 -2 -3 -3 -2 -1 -5 -2 -2 -2 -2 -3 -3 -13 -1 -2 -2 -1 0 0 0 0 0 0 0 0 0 0 0 0 0 0 0 0 0 0 0 0 0 0 0 0 0 0
-2 -2 -3 -3 -1 -2 0 -3 -5 0 0 -1 -4 -20 -6 -6 -4 -5 0 0 0 0 0 0 0 0 0 0 0 0 0 0 0 0 0 0 0 0 0 0 0 0 0 0
-1 -4 -4 -1 -2 -4 -3 -4 -3 -3 -2 -4 -6 -10 -3 -4 -18 -1 0 0 0 0 0 0 0 0 0 0 0 0 0 0 0 0 0 0 0 0 0 0 0 0 0 0
-5 0 0 0 0 -1 -3 -3 -3 -4 -4 -4 -8 -2 -3 -2 -14 -1 0 0 0 0 0 0 0 0 0 0 0 0 0 0 0 0 0 0 0 0 0 0 0 0 0 0
0 0 0 0 -1 -7 -3 -4 -2 -2 -2 -3 -8 -5 -2 -2 -8 -2 0 0 0 0 0 0 0 0 0 0 0 0 0 0 0 0 0 0 0 0 0 0 0 0 0 0
Wind_Speed
17 18 17 23 22 22 21 23 31 25 27 29 37 33 29 19 20 24 20 44 40 40 34 31 34 40 43 42 43 45 47 41 36 34 35 34 32 27 26 21 18 16 16 16
14 13 18 21 22 21 22 24 30 29 34 39 32 24 26 26 25 30 25 32 35 34 37 39 34 34 39 41 44 46 45 43 39 37 37 35 33 28 27 22 21 16 16 16
19 14 21 20 22 23 24 27 31 31 40 37 29 40 34 28 21 24 21 22 28 30 34 34 38 32 35 37 45 48 44 45 43 41 36 37 35 30 29 24 20 18 17 14
14 16 19 21 21 24 25 30 32 36 40 39 40 34 31 31 32 25 25 27 35 40 44 41 32 32 32 39 40 50 46 46 45 42 38 39 38 33 29 24 19 18 17 14
12 23 21 20 23 25 26 29 15 43 39 36 34 11 31 34 35 38 40 43 45 46 46 44 38 31 31 38 44 45 49 45 46 44 42 39 39 32 27 23 20 17 16 14
13 17 16 20 22 20 26 26 40 35 7 25 19 35 25 34 40 42 45 47 42 37 46 39 35 38 39 41 43 44 50 46 45 45 43 40 39 34 28 26 20 17 15 14
22 12 15 16 28 30 24 34 30 21 18 31 41 31 20 32 37 43 49 48 40 35 35 28 35 37 44 44 43 45 47 48 45 46 44 41 39 36 29 25 20 17 15 15
24 17 17 28 25 26 23 26 24 23 26 38 35 17 22 29 42 48 50 45 43 45 27 21 34 27 43 41 45 43 46 47 44 44 44 42 37 35 30 25 21 18 16 14
23 14 35 14 27 21 21 23 24 19 30 31 17 30 22 37 49 54 55 44 38 29 21 46 15 13 34 38 42 39 43 44 43 43 41 41 36 34 30 25 23 17 14 11
18 18 15 27 4 11 16 24 21 22 27 31 30 36 41 47 52 58 53 26 46 23 35 22 16 6 28 31 33 36 33 40 42 40 39 37 34 32 28 23 22 17 14 10
11 12 8 7 15 14 13 25 25 23 23 24 34 35 32 48 55 60 51 22 35 28 37 36 9 15 21 27 32 23 30 37 39 39 35 34 32 28 24 22 20 15 11 8
22 13 13 3 6 15 14 30 27 29 28 16 11 18 38 50 58 38 19 15 27 33 21 10 14 6 23 33 29 21 26 34 35 36 33 32 28 23 20 18 16 12 9 8
15 16 22 25 17 17 15 25 25 26 30 19 23 12 35 48 46 20 24 17 24 28 29 25 13 7 36 28 18 16 25 31 32 41 29 30 25 20 19 17 14 12 10 7
14 9 8 9 4 9 5 6 20 26 30 17 6 24 39 49 46 41 19 14 22 25 26 23 18 11 36 15 14 22 25 31 31 39 26 26 24 19 19 18 14 12 9 6
15 12 5 7 13 7 5 3 24 29 30 28 9 20 40 47 23 26 22 12 24 26 27 24 25 25 12 14 13 21 25 29 28 30 24 25 20 14 16 13 10 10 7 4
14 8 6 10 11 3 6 3 23 29 31 27 34 16 42 44 32 21 12 15 20 22 26 23 19 16 17 21 18 24 28 26 26 23 22 14 23 14 13 12 8 7 7 3
7 7 11 16 13 12 2 18 25 30 32 24 34 28 35 41 32 7 13 11 15 18 21 18 17 14 9 8 11 11 15 22 23 21 15 13 14 13 12 10 10 7 6 7
8 7 9 5 13 20 24 19 24 31 26 27 33 35 27 33 31 22 35 10 14 14 16 17 19 15 13 13 11 9 16 21 19 18 14 10 9 9 8 9 8 8 7 6
9 11 9 9 31 12 6 21 30 31 30 30 33 36 31 36 26 34 35 24 14 12 16 18 21 20 16 14 11 12 18 29 21 16 13 12 7 9 8 10 11 9 9 10
12 8 9 7 18 20 24 27 28 22 17 31 35 36 36 36 28 29 33 28 16 20 24 20 21 20 17 14 13 16 18 23 16 14 12 10 10 9 10 10 11 13 13 14
15 6 3 8 15 11 25 28 29 16 23 36 35 35 36 34 33 34 20 13 28 14 22 23 20 21 17 15 12 7 11 10 11 12 13 12 9 10 10 10 11 12 14 14
14 14 9 14 15 18 29 32 31 28 17 22 33 33 33 34 34 33 31 22 23 25 25 25 20 19 15 13 11 9 3 4 2 5 7 7 9 10 10 13 13 13 12 13
19 13 25 20 17 35 30 32 35 26 21 15 26 21 32 32 31 31 31 31 25 22 23 26 23 18 15 12 10 8 6 4 3 4 5 7 11 12 14 15 13 11 9 8
22 21 10 18 17 26 37 34 28 30 30 26 19 24 2 31 28 30 28 28 28 27 25 27 23 18 15 12 8 5 3 4 4 9 8 12 16 14 14 11 10 8 6 6
29 31 13 27 28 25 24 24 31 31 30 27 28 29 31 29 26 29 27 27 28 27 24 24 23 19 16 12 7 4 1 4 6 10 12 13 14 13 10 4 4 5 3 5
20 18 15 18 36 34 33 33 33 32 31 29 27 29 29 29 26 26 25 25 26 25 27 27 26 20 12 8 5 2 3 5 9 11 9 10 11 8 9 11 11 12 10 12
Wind_Direction
359 352 349 347 343 338 335 331 325 329 331 325 279 266 267 285 304 261 277 293 293 293 295 288 281 273 263 256 252 250 244 241 236 236 235 236 238 237 240 239 238 229 235 240
353 336 353 348 344 341 337 334 329 332 318 294 269 268 333 332 331 324 325 312 298 300 296 288 285 276 267 257 250 249 243 240 236 236 237 236 237 238 239 239 241 233 238 242
346 345 351 348 345 342 339 336 331 332 294 279 291 290 329 335 335 340 334 325 315 310 306 301 288 278 267 260 250 246 243 240 237 235 236 235 238 238 237 235 234 234 233 234
354 360 347 345 344 342 337 334 328 322 291 287 316 275 337 336 332 345 337 330 316 308 301 300 295 283 269 259 253 244 242 239 237 233 233 231 235 232 232 232 236 232 233 229
355 347 345 347 345 341 336 333 334 290 288 310 324 312 333 327 328 325 316 313 310 305 301 295 292 285 273 258 251 243 240 237 236 231 232 231 232 232 232 233 231 228 228 231
351 346 353 349 350 345 336 341 314 304 317 332 354 317 345 337 328 321 316 312 321 322 303 303 293 282 271 258 248 241 235 235 233 230 229 228 228 230 228 229 225 230 227 228
352 14 6 2 344 340 345 336 341 350 338 311 313 328 350 345 347 334 323 318 327 326 317 307 300 286 264 251 243 237 231 231 232 229 227 227 229 232 230 225 227 223 223 227
2 4 13 342 347 345 350 354 353 346 330 283 300 359 348 349 340 334 330 326 330 322 319 301 295 299 256 242 237 233 227 228 229 229 227 227 228 229 231 228 227 228 226 227
2 8 314 5 342 355 355 354 351 350 316 306 357 340 357 339 328 326 317 331 337 331 300 278 322 316 249 233 228 229 226 225 227 227 225 224 224 226 228 224 232 229 228 224
16 2 10 337 335 18 5 356 357 351 331 287 326 320 330 325 320 322 315 294 320 301 294 303 260 335 232 226 224 228 225 224 225 224 222 221 222 224 227 222 226 225 224 215
18 20 354 270 14 8 22 356 339 342 336 335 294 336 355 336 326 325 321 299 296 298 295 293 136 266 234 228 221 222 229 224 223 220 220 220 219 221 222 224 223 217 209 203
15 26 10 312 3 25 20 334 345 329 281 347 335 350 337 341 340 317 341 314 298 300 291 297 60 282 228 216 219 228 225 224 222 220 217 217 212 215 211 213 210 199 200 203
14 27 9 6 32 26 7 333 282 273 287 259 351 349 301 334 323 340 9 311 302 304 306 303 315 90 168 209 215 224 223 222 222 216 208 210 205 197 198 200 191 189 188 191
33 37 40 19 282 270 306 264 261 290 298 314 347 289 311 336 326 332 329 329 304 305 306 292 278 281 204 229 234 221 224 222 220 213 206 199 202 203 201 197 196 195 197 194
33 25 257 254 256 256 253 233 272 293 299 338 290 291 321 336 344 16 18 336 311 312 313 299 275 287 287 263 223 217 224 220 212 211 207 201 204 207 185 180 193 213 210 198
21 16 260 266 256 48 253 10 334 300 322 347 329 293 330 349 327 23 3 321 314 311 311 306 290 256 250 228 232 224 222 218 210 209 200 185 210 202 205 203 183 193 189 155
19 29 258 270 269 266 67 11 338 322 324 351 329 301 314 328 321 355 326 326 316 313 311 295 307 304 153 277 254 239 223 208 206 206 192 170 165 174 167 150 145 181 164 118
30 18 249 268 289 13 4 24 345 324 343 339 322 323 307 321 316 28 351 310 312 313 310 298 302 300 284 274 272 258 238 217 199 201 198 185 158 156 160 152 146 135 132 113
38 26 260 36 316 264 45 16 345 316 326 328 329 330 313 323 312 358 341 313 293 299 307 303 303 307 306 297 266 254 233 228 186 190 191 193 165 174 176 157 144 140 121 108
29 39 38 245 6 5 355 342 322 280 353 323 331 332 320 323 313 312 321 319 289 303 319 309 314 303 292 283 264 342 232 222 218 209 198 187 182 154 170 155 127 114 108 104
7 18 214 234 240 289 330 318 304 305 338 312 326 330 326 322 337 351 302 291 329 278 304 315 310 338 321 291 320 3 196 187 192 183 175 175 135 137 138 123 115 114 105 100
352 359 4 337 244 333 317 298 296 284 269 280 340 329 327 333 340 348 328 302 312 315 313 323 304 320 321 313 313 270 294 221 121 150 154 142 122 118 115 112 112 112 108 98
344 356 332 338 245 286 284 298 295 275 264 259 356 12 316 329 343 346 349 336 308 309 309 321 317 310 315 327 349 325 300 261 210 176 151 126 104 109 109 114 114 111 113 103
327 326 313 241 329 296 290 295 327 325 329 350 12 7 358 329 344 342 352 0 331 320 314 324 309 315 306 293 315 336 17 70 104 104 125 115 108 116 111 111 107 111 119 99
313 313 267 249 256 253 326 330 321 318 316 340 338 340 338 347 348 340 346 355 2 357 317 325 331 318 306 287 282 269 182 115 122 124 121 121 115 119 119 129 146 114 72 91
314 310 312 243 288 291 301 304 311 308 305 320 337 331 335 341 359 345 345 352 3 5 352 354 350 335 309 277 253 229 173 160 135 130 137 149 137 132 123 116 100 74 80 72